www.pogodaiklimat.ru

Погода и климат >> Архив погоды >> Россия >> Краснодарский край >> Лабинск


ПОГОДА в Лабинске

  • Прогноз погоды в Лабинске
  • Монитор погоды в Лабинске

АРХИВ ПОГОДЫ в Лабинске

Время (UTC), дата Ветер
(напр.,м/с)
 
Видим.   Явления Облачность Т
(С)
Тd
(С)
f
(%)
Тe
(С)
Тes
(С)
Комфортность P
(гПа)
Po
(гПа)
Тmin
(С)
Tmax
(С)
R
(мм)
R24
(мм)
S
(см)
00 13.08 В 1 10 км ясно +13.3 +10.8 85 +13 +13 1017.9 986.6
03 13.08 ЮВ 1 10 км ясно +12.1 +10.4 89 +12 +12 1018.2 986.8 +11.7
06 13.08 СВ 2 10 км ясно +25.5 +11.3 41 +27 +35 жарко 1016.9 986.9
09 13.08 В 3
{10}
10 км ясно +30.4 +8.6 26 +30 +43 жарко 1015.4 985.9
12 13.08 СВ 2 10 км ясно +32.9 +7.1 20 +31 +42 жарко 1013.6 984.3
15 13.08 СВ 2 10 км ясно +30.3 +7.4 24 +29 +30 жарко 1013.0 983.5 +33.7
18 13.08 СВ 2 10 км ясно +22.1 +4.1 31 +22 +22 комфорт 1014.9 984.6
21 13.08 В 2 10 км ясно +20.3 +2.2 30 +21 +21 комфорт 1014.2 983.7
00 14.08 В 2 10 км ясно +17.8 +2.8 37 +18 +18 1014.0 983.2
03 14.08 ЮВ 1 10 км ясно +14.9 +4.3 49 +16 +16 1014.9 983.8 +14.0
06 14.08 В 4-10
{10}
10 км ясно +26.0 +5.5 27 +25 +31 комфорт 1012.6 982.7
09 14.08 СВ 5-12
{12}
10 км ясно +31.8 +6.0 20 +30 +38 жарко 1010.5 981.2
12 14.08 СВ 4
{14}
10 км ясно +33.9 +5.1 17 +32 +39 жарко 1008.8 979.8
15 14.08 В 4
{12}
10 км ясно +31.2 +3.5 17 +29 +29 жарко 1008.7 979.4 +34.1
18 14.08 СВ 1
{10}
10 км ясно +21.2 +6.2 38 +22 +22 комфорт 1009.8 979.6
21 14.08 ЮВ 1 10 км ясно +19.6 +3.1 33 +21 +21 комфорт 1008.6 978.2
00 15.08 В 1 10 км ясно +14.9 +7.7 62 +16 +16 1008.5 977.6
03 15.08 В 1 10 км ясно +13.0 +9.1 77 +13 +13 1008.5 977.4 +12.0
06 15.08 В 3 10 км ясно +27.0 +12.6 41 +29 +35 жарко 1007.0 977.4
09 15.08 СЗ 1 10 км ясно +34.7 +11.5 24 +34 +53 опасность
солнечного
удара
1005.7 976.9
12 15.08 В 2 10 км ясно +37.2 +10.1 19 +36 +46 очень
жарко
1003.7 975.2
15 15.08 В 3 10 км ясно +34.4 +6.2 17 +32 +33 жарко 1003.6 974.8 +37.6
18 15.08 Ю 2 10 км ясно +24.9 +11.4 43 +26 +26 жарко 1005.8 976.1
21 15.08 ЮВ 1 10 км ясно +19.2 +13.5 70 +22 +22 комфорт 1006.6 976.3
00 16.08 В 1 10 км ясно +18.5 +15.1 81 +20 +20 1007.4 977.0
03 16.08 Ю 2 10 км 10/0
[Ac trans Ci fib]
+20.3 +15.5 74 +24 +24 комфорт 1007.2 977.0 +17.7
06 16.08 ЮВ 2 10 км 10/6 1000 м
[Sc Ac trans Ci fib]
+27.5 +16.6 51 +31 +33 душно 1006.3 976.9
09 16.08 З 4-10
{10}
10 км 10/4 1000 м
[Sc Ac trans Ci fib]
+34.0 +14.2 30 +35 +38 очень
жарко
1005.7 976.9
12 16.08 З 4
{10}
10 км 10/8 1000 м
[Sc Ac trans Ci fib]
+32.0 +17.5 42 +36 +37 очень
душно
1005.7 976.7
15 16.08 С 1 10 км 10/10 1000 м
[Sc]
+27.9 +17.8 54 +32 +32 душно 1004.9 975.6 +34.3
18 16.08 З 3 10 км 10/10 1000 м
[Sc]
+24.9 +17.9 65 +29 +29 душно 1006.9 977.2
21 16.08 ЮВ 2 н/о н/о +21.2 +19.4 89 +26 +26 душно 1006.9 976.9
00 17.08 З 4 10 км {ливн. осадки} 8/3 1000 м
[Sc diur, vesp Ac trans Ci fib]
+21.1 +19.0 88 +25 +25 комфорт 1007.2 977.1
03 17.08 З 2
{11}
10 км 10/10 600 м
[Sc]
+19.8 +17.9 89 +23 +23 комфорт 1008.7 978.4 +19.7 0.8
06 17.08 З 1 4000 м гроза, ливневой дождь 10/10 600 м
[Cb cap]
+19.7 +18.2 91 +23 +23 комфорт 1009.5 979.3
09 17.08 С 1 10 км в посл. час гроза {ливн. осадки} 10/10 300 м
[]
+20.9 +19.3 91 +27 +27 душно 1009.7 979.5
12 17.08 Ю 1 10 км {гроза, ливн. осадки} 10/10 600 м
[Cb cap]
+24.3 +18.5 70 +29 +29 душно 1009.5 979.7
15 17.08 штиль 0 10 км 8/4 600 м
[Cb cap Ac cuf Ci sp]
+25.8 +18.6 64 +31 +31 очень
душно
1009.2 979.6 +26.9 4
18 17.08 В 1 10 км 10/10 600 м
[Cb cap]
+21.3 +19.3 88 +26 +26 душно 1010.1 980.0
21 17.08 штиль 0 10 км 10/10 600 м
[Cb cap]
+20.8 +19.3 91 +25 +25 комфорт 1009.8 979.6
00 18.08 ЮЗ 1 10 км 10/10 600 м
[Cb cap]
+20.5 +19.2 92 +26 +26 душно 1009.7 979.5
03 18.08 штиль 0 4000 м слаб. ливневой дождь, в посл. час гроза 10/10 600 м
[Cb cap]
+19.8 +18.6 93 +22 +22 комфорт 1009.3 979.0 +19.8 4
06 18.08 ЮЗ 1 1000 м слаб. ливневой дождь {гроза} 10/10 600 м
[Cb cap]
+20.2 +19.0 93 +25 +25 комфорт 1009.8 979.5 +19.8
09 18.08 С 1 10 км {гроза, ливн. осадки} 10/4 1000 м
[Cb cap Ac trans Ci fib]
+25.6 +19.7 70 +31 +37 очень
душно
1008.7 979.0
12 18.08 С 2 10 км {гроза, ливн. осадки} 10/4 1000 м
[Cb cap Ac trans Ci fib]
+27.1 +19.9 65 +33 +36 очень
душно
1008.9 979.4
15 18.08 СЗ 1 10 км 10/4 1000 м
[Cb cap Ac trans Ci fib]
+25.7 +20.3 72 +32 +32 очень
душно
1009.7 980.0 +27.8 6
18 18.08 ЮЗ 1 10 км 6/3 1000 м
[Sc Ac trans]
+21.2 +19.4 89 +26 +26 душно 1012.3 982.1
21 18.08 СЗ 1 4000 м 10/0
[Ac trans]
+20.2 +18.9 92 +25 +25 комфорт 1013.1 982.8
00 19.08 З 2 4000 м 10/6 600 м
[Cb cap Ac trans]
+19.9 +18.6 92 +24 +24 комфорт 1013.7 983.3
03 19.08 З 2 4000 м дымка 10/10 300 м
[St]
+19.1 +17.8 92 +21 +21 комфорт 1014.5 984.0 +19.1
06 19.08 СЗ 1 4000 м дымка 10/6 1000 м
[Sc diur, vesp Ac und]
+21.3 +18.4 84 +26 +27 душно 1015.4 985.1 +19.1
09 19.08 СВ 1 10 км 10/4 1000 м
[Sc diur, vesp Ac und]
+24.9 +19.2 71 +30 +33 душно 1015.2 985.3
12 19.08 СВ 1 10 км 6/6 1000 м
[Cu hum]
+30.1 +19.2 52 +36 +40 очень
душно
1013.9 984.5
15 19.08 С 2 10 км ясно +29.5 +19.2 54 +35 +36 очень
душно
1013.5 984.1 +31.1
18 19.08 З 1 10 км ясно +22.6 +19.9 85 +29 +29 очень
душно
1015.4 985.2
21 19.08 ЮВ 1 10 км ясно +20.3 +19.0 92 +25 +25 комфорт 1015.8 985.4

 

Местоположение метеостанции Лабинск (Краснодарский край, Россия): широта 44.67 долгота 40.75 высота над уровнем моря 264 м.

В архиве по умолчанию представлена погода в Лабинске за последнюю неделю. Архивные данные за месяц целиком и за предыдущие месяцы, начиная с января 2011 года, Вы можете получить, выбрав интересующий диапазон дат из раскрывающегося списка и нажав кнопку "Ввод!".


*Определитесь, кто Вы:
робот инопланетянин человек

Внимание! Время в таблицах - всемирное. Для получения местного времени необходимо прибавить поправку, которая равна 3 ч.

Смотрите также архив погоды в соседних городах и на ближайших метеорологических станциях:

Погода в Дондуковской (Адыгея, Россия) (38 км)
Погода в Армавире (Краснодарский край, Россия) (45 км)
Погода в Майкопе (Адыгея, Россия) (53 км)
Погода в Шунтуке (Адыгея, Россия) (55 км)
Погода в Псебае (Краснодарский край, Россия) (60 км)
Погода в Отрадной (Краснодарский край, Россия) (65 км)
Погода в Белореченске (Краснодарский край, Россия) (68 км)
Погода в Кропоткине (Краснодарский край, Россия) (86 км)
Погода в Гузерипле (Адыгея, Россия) (89 км)
Погода в Невинномысске (Ставропольский край, Россия) (97 км)

Пояснения к столбцам:

Ветер - указаны скорость ветра в м/с - средняя за 10 мин, порывы в срок и между сроками (в фигурных скобках) и направление, откуда дует ветер: С - северный, СВ - северо-восточный, В - восточный, ЮВ - юго-восточный, Ю - южный, ЮЗ - юго-западный, З - западный, СЗ - северо-западный.
Видимость - горизонтальная дальность видимости в метрах или километрах. При видимости от 1 до 10 км при отсутствии осадков обычно наблюдается дымка, при ухудшении видимости до 1 км и менее - туман. В сухую погоду видимость может ухудшаться дымом, пылью или мглою.
Явления - указаны атмосферные явления, наблюдавшиеся в срок или в последний час перед сроком; фигурными скобками обозначены явления, наблюдавшиеся между сроками (за 1-3 часа до срока); квадратными скобками обозначены град или гололедные отложения с указанием их диаметра в мм.
Облачность - указаны через наклонную черту общая и нижняя облачность в баллах и высота нижней границы облаков в метрах; квадратными скобками обозначены формы облаков: Ci - перистые, Cs - перисто-слоистые, Cc - перисто-кучевые, Ac - высококучевые, As - высокослоистые, Sc - слоисто-кучевые, Ns - слоисто-дождевые, Cu - кучевые, Cb - кучево-дождевые. Подробнее классификацию облаков см. в Атласе облаков (PDF).
T - Температура воздуха - температура, измеренная на высоте 2 м над землей.
Td - Температура точки росы - температура, при понижении до которой содержащийся в воздухе водяной пар достигнет насыщения.
f - Относительная влажность воздуха - влажноcть воздуха, измеренная на высоте 2 м над землей.
Te - Эффективная температура - температура, которую ощущает одетый по сезону человек в тени. Характеристика душности погоды. При расчете учитывается влияние влажности воздуха и скорости ветра на теплоощущения человека.
Tes - Эффективная температура на солнце - температура, которую ощущает человек, с поправкой на солнечный нагрев. Характеристика знойности погоды. Зависит от высоты солнца над горизонтом, облачности и скорости ветра. Ночью, в пасмурную погоду, а также при ветре 12 м/с и более поправка равна нулю.
P - Атмосферное давление - приведенное к уровню моря атмосферное давление.
Po - Атмосферное давление - измеренное на уровне метеостанции атмосферное давление.
Tmin - Минимальная температура - минимум температуры воздуха на высоте 2 м над землей.
Tmax - Максимальная температура - максимум температуры воздуха на высоте 2 м над землей.
R - Количество осадков - Количество выпавших осадков за период времени, мм. При наведении курсора мыши на число - период времени, за который выпало указанное количество осадков.
R24 - Количество осадков - Количество выпавших осадков за 24 часа, мм.
S - Снежный покров - Высота снежного покрова, см. При наведении курсора мыши на число - состояние снежного покрова и степень покрытия местности в баллах.